GFSGL_prec_cloud_006.txt.gz
Cloud_Cover
8 4 44 84 100 100 100 100 100 98 91 100 95 97 100 100 100 100 74 100 100 100 100 100 100 100 100 100 100 100 100 100 100 100 100 100 100 100 100 100 100 100 100
3 4 11 100 100 100 100 100 100 68 83 16 88 89 100 100 100 100 100 100 94 90 100 100 100 100 100 100 100 100 100 100 100 100 100 100 100 100 100 100 100 100 100
0 0 10 100 100 100 100 100 99 100 19 61 72 70 100 100 100 100 100 100 100 100 100 100 100 100 100 100 100 100 100 100 100 100 100 100 100 100 100 100 100 100 89
0 4 4 92 100 23 100 100 100 94 96 73 8 72 100 100 100 100 100 100 100 100 100 100 100 100 100 100 100 100 100 100 100 100 100 100 100 100 100 100 89 100 99
0 0 3 5 58 47 100 100 100 100 100 100 20 66 100 100 100 100 100 100 100 100 100 100 100 100 100 100 100 100 100 100 100 100 100 100 100 100 99 90 99 55 83
0 4 61 0 21 53 73 100 100 100 100 100 94 100 100 100 100 100 100 100 100 100 100 100 100 100 100 100 100 100 100 100 100 100 100 100 100 49 100 100 100 100 100
0 5 5 7 42 5 60 67 100 100 100 100 100 100 100 100 100 100 100 100 100 100 100 100 100 100 100 100 100 100 100 100 70 90 95 100 100 100 100 93 95 100 56
0 2 10 79 93 5 5 21 100 86 100 100 100 100 100 100 100 100 100 99 100 100 100 100 100 100 100 100 100 100 100 80 100 100 100 84 90 73 37 30 54 100 100
5 2 2 5 44 100 100 5 5 86 59 100 98 79 100 100 100 100 100 90 80 100 100 100 100 100 100 100 100 100 100 100 100 100 70 52 18 83 100 100 100 100 100
0 0 4 1 0 49 33 74 5 5 74 41 96 71 78 100 100 100 100 100 100 100 100 100 100 100 100 100 83 100 91 30 61 42 50 79 98 67 100 100 100 100 92
0 0 0 0 0 0 2 3 2 14 5 7 45 75 37 15 100 100 100 100 100 100 100 100 100 100 100 100 100 100 100 85 62 86 100 100 95 100 100 100 100 89 64
0 0 0 0 0 0 0 0 0 0 0 4 6 37 48 37 11 100 100 100 100 100 100 100 100 100 100 100 100 100 23 100 100 100 100 92 96 33 51 90 31 1 14
0 0 0 0 0 0 0 0 0 0 0 0 0 1 44 93 53 36 31 98 100 100 100 100 100 100 100 100 100 100 100 97 97 74 5 5 5 3 3 5 53 99 81
0 0 0 0 0 0 0 0 0 0 0 0 0 0 0 0 0 33 41 53 87 79 13 37 33 68 72 71 63 31 66 52 5 5 2 5 5 9 67 84 91 97 100
5 5 0 0 0 0 0 0 0 0 0 0 0 0 0 0 0 0 0 0 0 0 1 12 5 5 5 5 5 5 4 4 0 1 5 7 77 79 97 100 100 100 100
0 5 3 0 0 0 0 0 0 0 0 0 0 0 0 0 0 0 0 0 0 0 0 0 0 0 0 0 0 0 0 0 6 57 45 99 69 98 100 100 100 85 87
0 0 0 0 0 0 0 0 0 0 0 0 0 0 0 0 0 0 0 0 0 0 0 0 0 0 0 0 0 3 5 61 98 54 96 100 100 98 72 73 97 81 74
1 3 2 5 0 0 0 0 0 0 0 0 0 0 0 0 0 0 1 5 5 5 5 5 5 5 5 2 4 5 93 95 52 100 100 100 100 100 97 92 75 84 100
5 2 0 5 5 3 3 0 0 1 1 0 0 11 0 1 4 5 5 3 0 5 5 2 5 5 0 3 5 32 93 96 94 99 98 95 100 99 99 100 94 100 100
5 5 5 5 6 33 5 5 3 2 0 5 5 5 41 57 14 6 4 4 0 0 0 0 4 5 5 5 5 51 95 99 100 100 100 100 100 100 100 100 100 100 100
6 5 29 98 44 6 5 6 5 5 5 5 16 96 100 100 100 100 100 98 60 6 14 5 5 5 5 18 5 36 86 93 100 100 100 100 100 87 91 100 100 100 100
13 5 5 5 18 96 67 100 97 8 12 39 34 100 100 46 100 100 100 100 92 5 5 5 59 8 80 48 54 50 100 99 100 100 100 99 100 100 100 100 100 100 100
0 3 3 37 96 41 94 95 98 33 7 23 100 100 100 100 94 100 100 100 95 83 91 68 80 71 92 92 99 100 98 100 100 100 100 100 100 100 100 100 100 100 100
8 5 5 5 14 95 90 95 97 58 61 22 86 100 95 55 100 100 100 100 100 100 100 100 100 100 100 100 100 100 100 100 100 100 100 100 100 100 100 100 100 100 100
100 99 73 74 23 98 99 92 81 63 5 17 100 90 99 100 100 100 100 100 100 100 100 100 100 100 100 100 100 100 100 100 100 100 100 100 100 100 100 100 100 100 100
96 100 86 51 4 67 100 100 83 70 60 92 99 100 100 100 100 100 100 100 100 100 100 100 100 100 100 100 100 100 100 100 100 100 100 100 100 100 100 87 99 100 99

GFSGL_prec_cloud_009.txt.gz
Cloud_Cover
0 0 61 100 100 92 94 74 12 51 66 99 89 100 100 100 100 100 94 100 93 98 100 100 100 100 100 100 100 100 100 100 100 100 100 100 100 100 100 100 100 100 100
0 0 78 100 100 100 96 70 6 29 16 100 100 100 100 100 99 99 98 100 92 100 100 100 100 100 100 100 100 100 100 100 100 100 100 100 100 100 100 100 100 100 100
0 4 78 100 100 100 96 67 8 5 7 100 100 100 100 100 100 100 100 100 100 99 100 100 100 100 100 100 100 100 100 100 100 100 100 100 100 100 100 100 100 100 100
0 0 87 100 94 100 100 90 91 18 17 100 100 100 100 100 100 98 93 100 100 100 100 100 100 100 100 100 100 100 100 100 100 100 100 100 100 100 100 100 100 100 100
0 0 21 41 5 100 100 100 100 97 10 47 100 100 100 100 100 100 100 100 100 100 100 100 100 100 100 100 100 100 100 100 100 100 100 100 100 100 100 100 100 100 100
0 0 2 19 18 100 100 100 100 100 30 67 100 100 100 100 100 100 100 100 100 100 100 100 100 100 100 100 100 100 100 100 100 100 100 100 100 100 100 100 100 100 100
0 0 1 41 85 5 58 98 100 100 87 91 100 100 100 100 100 100 100 100 100 100 100 100 100 100 100 100 100 100 100 100 100 100 100 100 100 100 100 100 100 100 100
0 2 5 5 5 5 5 26 100 100 100 100 100 97 100 100 99 100 100 100 100 100 100 100 100 100 100 100 100 100 100 100 100 100 100 100 100 100 100 97 56 79 100
0 0 0 2 51 4 5 5 53 67 100 100 100 100 100 100 100 100 100 100 100 100 100 100 100 100 100 100 100 100 100 100 100 100 100 100 100 100 100 100 100 100 90
0 0 4 0 5 7 7 6 5 5 20 85 98 100 100 100 100 100 100 100 100 100 100 100 97 100 100 96 100 100 100 100 100 100 97 100 98 98 100 100 88 6 89
0 0 0 0 0 0 16 5 4 0 3 5 18 73 95 100 100 100 100 100 100 100 100 100 100 94 100 100 88 75 98 100 100 100 80 73 53 6 9 20 100 100 100
0 0 0 0 0 0 0 0 0 0 0 1 1 16 51 27 100 100 100 100 100 100 100 100 100 100 100 100 96 57 19 20 8 90 90 91 60 87 33 87 73 83 86
0 0 0 0 0 0 0 0 0 0 0 0 0 0 5 5 27 67 100 100 98 100 100 96 70 100 97 37 7 17 90 100 53 90 100 94 44 87 95 100 73 99 100
0 0 0 0 0 0 0 0 0 0 0 0 0 0 0 2 4 5 18 39 61 100 100 100 100 100 100 100 100 84 36 13 10 76 100 92 100 96 32 95 58 65 90
0 0 0 0 0 0 0 0 0 0 0 0 0 0 0 0 0 0 0 3 8 26 24 50 83 98 100 100 100 83 5 5 5 5 5 17 34 20 42 92 98 88 8
0 0 0 4 0 0 0 0 0 0 0 0 0 0 0 0 0 0 0 0 0 0 2 1 1 2 7 4 5 0 3 1 2 22 47 11 37 71 76 100 94 60 6
1 0 0 2 0 0 0 0 0 0 0 0 0 0 0 0 0 0 0 0 0 0 0 0 0 0 0 0 4 5 5 5 16 7 8 71 80 100 100 99 86 78 47
0 0 0 0 0 0 0 0 0 0 0 0 0 0 0 0 0 0 0 0 0 0 0 0 0 0 4 5 4 5 5 5 5 5 31 64 84 100 100 87 98 99 91
0 0 0 0 0 0 0 4 1 2 1 3 0 0 0 0 0 0 0 4 1 0 2 0 0 5 5 6 34 6 5 5 16 78 81 40 99 100 99 100 99 90 92
0 0 0 0 5 0 0 5 5 5 5 4 1 2 5 5 5 11 89 100 100 54 91 99 6 5 1 5 5 5 25 7 6 97 100 100 100 100 98 99 95 98 100
0 0 0 0 5 3 0 8 7 23 97 71 31 31 5 14 99 100 20 100 100 90 100 100 100 70 22 5 5 6 20 33 100 100 100 100 100 100 97 98 100 100 100
5 3 4 5 5 5 4 25 36 95 88 94 77 78 75 96 67 75 98 98 94 99 100 100 100 100 100 97 100 100 99 100 98 100 100 100 100 100 100 100 100 100 100
3 5 4 4 5 5 5 0 6 79 96 95 96 100 100 89 99 100 100 97 72 64 100 90 91 99 100 100 100 100 100 100 100 100 100 100 100 94 100 100 100 100 100
0 2 5 1 0 1 2 4 5 4 2 5 11 100 100 100 96 100 100 100 100 99 100 100 100 100 100 100 99 96 100 100 100 100 100 100 100 100 100 100 100 100 100
5 1 2 4 5 30 5 5 5 5 56 15 68 33 97 100 100 100 98 95 100 100 100 100 100 100 100 100 100 100 100 100 100 100 100 91 100 100 100 100 100 100 100
3 4 4 5 5 5 5 5 40 95 36 32 18 99 45 26 99 100 100 100 100 100 100 100 100 100 100 100 100 100 100 100 100 100 100 100 100 100 100 100 100 100 97

GFSGL_prec_cloud_015.txt.gz
Cloud_Cover
0 3 98 98 5 7 6 34 100 62 39 31 71 88 36 87 85 100 100 100 100 100 100 100 100 100 95 100 100 100 100 100 100 100 100 100 100 100 100 100 100 100 100
0 22 100 100 5 49 5 98 46 14 8 21 69 75 100 49 97 98 100 100 98 98 100 100 100 100 100 100 100 100 100 100 100 100 100 100 100 100 100 100 100 100 100
0 12 94 100 57 61 43 54 18 58 29 10 12 18 77 99 98 100 100 100 100 100 100 100 100 100 100 100 100 100 100 100 100 100 100 100 100 100 100 100 100 100 100
0 3 97 100 95 77 5 94 6 6 5 5 7 35 47 32 68 100 100 100 100 100 100 100 100 100 100 100 100 100 100 100 100 100 100 100 100 100 100 100 100 100 100
0 1 56 74 100 17 27 25 100 71 90 68 4 15 100 100 99 72 100 100 100 100 100 100 100 100 100 94 100 100 100 100 100 100 100 100 100 100 100 100 100 100 100
0 0 9 93 99 70 96 7 8 33 89 100 31 96 93 86 100 90 63 88 100 100 100 100 100 100 100 100 100 100 100 100 100 100 100 100 100 100 100 100 100 100 100
0 0 5 26 91 95 38 72 9 5 7 85 69 59 100 100 100 100 100 100 100 100 100 100 100 100 100 100 100 100 100 100 100 100 100 100 100 100 100 100 100 100 100
0 5 10 5 37 84 100 25 89 53 6 90 94 100 100 100 100 100 100 100 100 100 94 100 100 100 100 100 100 100 100 100 100 100 100 100 100 100 100 100 100 100 100
0 1 91 97 5 6 18 45 38 87 26 100 92 95 100 100 100 100 100 100 100 100 100 100 100 100 100 100 100 100 100 100 100 100 100 100 100 100 100 100 100 100 100
0 0 0 1 0 5 5 5 5 15 93 82 100 83 100 99 100 100 83 100 99 100 100 100 100 100 100 100 100 100 100 100 72 100 100 100 100 100 100 100 100 100 100
0 0 0 0 0 5 5 5 2 3 5 48 61 100 94 88 100 100 100 92 98 88 100 95 100 100 100 100 100 100 100 100 87 92 97 100 100 100 100 100 100 100 100
0 0 0 0 0 0 0 3 0 1 2 2 5 48 100 100 89 40 72 100 100 100 100 100 100 100 99 100 100 100 92 100 100 100 100 100 67 100 100 100 100 84 48
0 0 0 0 0 0 0 0 0 0 0 0 0 4 5 87 100 100 100 94 97 100 100 100 100 100 100 100 60 74 93 69 100 100 99 40 19 21 85 99 87 78 82
0 0 0 0 0 0 0 0 0 0 0 0 0 0 0 2 5 46 99 100 100 100 100 100 100 100 100 100 100 78 100 47 85 100 100 100 100 100 100 100 99 87 33
0 0 0 0 0 0 0 0 0 0 0 0 0 0 0 0 0 3 5 5 68 92 100 100 100 100 100 100 100 100 100 100 100 100 100 64 22 23 41 23 11 4 5
0 0 0 0 5 2 0 5 0 0 0 0 0 0 0 0 0 0 0 0 0 1 4 10 5 2 2 2 13 30 45 60 54 41 23 5 7 1 2 5 5 12 90
0 0 0 0 0 0 0 0 0 0 0 0 0 0 0 0 0 0 0 0 0 0 0 0 0 0 0 0 0 0 0 0 0 0 0 0 0 0 0 0 22 13 19
0 0 0 0 0 0 0 0 0 0 0 0 0 0 0 0 0 0 0 0 0 0 0 0 0 4 1 0 0 2 4 2 46 61 36 68 48 21 5 20 11 100 63
0 0 0 0 0 0 0 0 0 0 0 0 0 4 3 0 2 1 0 0 5 4 2 1 91 45 18 93 88 94 77 50 19 31 10 5 6 54 51 81 93 100 100
0 0 0 0 0 0 0 0 0 0 0 0 1 0 2 6 11 5 5 5 4 5 5 5 16 79 54 60 97 65 43 87 79 79 68 48 73 33 33 98 99 100 100
0 2 0 0 2 2 3 5 0 0 0 0 0 0 6 33 100 100 100 11 6 8 8 26 42 41 100 99 95 96 98 84 100 70 100 100 100 99 100 100 100 100 100
0 2 1 1 5 5 5 5 5 5 0 0 1 0 1 5 5 5 33 100 100 100 74 70 100 81 61 65 75 82 100 100 90 100 99 100 100 100 100 100 100 100 100
3 1 4 0 1 17 5 16 5 4 3 0 1 4 1 42 9 64 98 99 100 97 100 97 100 100 100 100 100 100 100 100 100 100 100 100 100 100 100 100 100 100 100
5 5 8 9 1 4 43 77 37 10 5 5 5 38 16 5 26 52 7 52 79 41 98 100 100 100 85 100 100 100 100 100 100 100 100 100 100 100 100 100 100 100 100
100 57 5 5 5 5 5 5 22 10 20 5 7 10 88 49 5 5 5 5 48 12 76 71 63 77 82 100 100 100 100 100 100 100 100 100 100 100 100 100 100 100 100
100 100 19 23 5 16 7 3 5 5 32 63 90 100 77 7 5 6 28 26 33 61 83 22 40 75 50 97 100 100 100 100 100 100 100 100 100 100 100 100 100 100 100

GFSGL_prec_cloud_021.txt.gz
Cloud_Cover
0 0 3 4 2 5 24 54 62 33 18 5 5 6 60 100 100 100 92 100 100 100 100 100 100 100 100 100 100 100 100 100 100 100 100 100 100 100 100 100 100 100 100
0 0 5 5 43 5 35 39 48 37 76 22 5 5 98 100 97 100 100 100 100 100 100 100 100 100 100 100 100 100 100 100 100 100 100 100 100 100 100 100 100 100 100
0 0 0 4 2 5 36 52 45 68 49 100 72 32 100 100 99 100 100 100 100 100 100 100 100 100 100 100 100 100 100 100 100 100 100 100 100 100 100 100 100 100 100
0 0 0 10 5 5 27 60 49 47 100 80 100 100 100 100 100 100 100 100 100 100 100 100 87 100 100 100 100 100 100 100 100 100 100 100 100 100 100 100 100 100 100
0 0 4 11 50 5 24 42 24 41 90 100 100 100 100 100 100 100 100 100 100 100 100 85 100 100 100 100 100 100 100 100 100 100 100 100 100 100 100 100 100 100 100
0 0 0 5 98 5 23 99 96 94 100 100 50 59 100 100 100 95 100 100 100 100 100 100 100 100 96 100 84 98 100 100 100 100 100 100 100 100 100 100 100 100 100
0 0 4 3 3 5 9 10 77 96 100 90 74 100 100 100 100 100 100 100 100 100 74 100 100 100 87 96 100 100 100 100 100 100 100 100 100 100 100 100 100 100 100
0 0 0 5 5 2 12 73 55 46 100 98 100 100 100 100 100 100 100 100 100 100 100 80 100 96 100 100 100 94 100 100 100 100 100 100 100 100 100 100 100 100 100
0 0 0 0 2 5 5 5 10 28 64 100 100 100 100 100 100 100 100 79 100 100 100 100 100 96 100 100 100 100 100 100 100 100 100 100 100 100 100 100 100 100 100
0 1 0 0 0 0 5 4 1 11 13 97 100 96 100 100 100 100 98 100 100 100 100 100 100 100 100 100 100 100 100 100 100 100 100 100 100 100 100 100 100 100 100
0 0 0 0 0 0 0 2 4 5 34 29 100 100 100 100 100 100 100 100 100 100 100 100 100 100 100 100 100 100 100 100 100 100 100 100 100 100 100 100 100 100 100
0 0 0 0 0 0 0 0 0 0 15 75 14 96 96 100 96 100 100 95 100 100 100 100 100 100 100 100 100 100 100 100 100 100 100 100 100 100 100 100 100 100 100
0 0 0 0 0 0 0 0 0 0 0 5 96 84 16 100 100 100 100 99 96 100 100 100 98 100 100 93 98 100 100 100 99 100 100 99 60 47 12 32 39 77 85
0 0 0 0 0 0 0 0 0 0 0 0 0 7 93 100 74 56 68 51 76 63 36 85 9 72 89 96 99 100 98 46 75 94 94 82 69 51 41 62 66 61 59
0 0 0 0 0 0 0 0 0 0 0 0 0 0 0 0 24 82 100 95 55 43 62 100 86 95 91 89 60 73 42 18 19 52 77 73 50 61 51 94 100 100 100
0 0 0 0 0 0 0 0 70 25 0 0 0 0 0 0 0 0 0 1 18 39 81 99 88 85 96 100 100 98 92 90 100 100 100 100 69 65 67 62 17 39 15
0 0 0 0 0 0 0 0 0 33 15 0 0 0 0 0 0 0 0 0 0 5 0 0 0 0 7 1 2 11 34 6 5 0 0 0 0 5 5 10 68 31 45
0 0 0 0 0 0 0 0 0 0 0 0 60 21 65 0 0 0 0 0 2 26 0 0 0 0 0 0 0 2 5 4 4 3 1 3 7 48 86 83 89 93 80
2 3 0 0 0 0 0 0 0 0 0 0 0 47 45 2 10 0 0 0 0 0 0 0 0 0 0 0 2 3 5 5 6 9 26 19 13 7 47 86 100 100 98
5 5 3 0 0 0 0 0 0 0 0 0 0 0 0 13 0 0 0 0 3 4 2 5 5 5 5 46 16 5 5 5 5 5 18 69 97 52 26 100 100 100 100
0 5 5 5 0 0 0 0 0 0 0 0 0 0 0 0 0 0 0 0 0 0 0 0 0 0 3 5 64 83 76 28 6 34 100 95 100 96 100 100 100 100 100
0 5 5 5 5 1 4 2 0 0 0 0 0 0 0 0 0 0 0 0 0 0 0 0 3 4 5 5 9 5 5 5 49 97 81 90 96 45 40 55 74 100 100
0 5 5 7 5 5 5 4 0 5 4 0 0 0 0 0 0 0 0 0 0 5 5 5 5 5 48 73 24 6 5 5 24 57 57 63 85 94 49 24 98 100 100
5 3 5 8 56 6 7 20 5 5 10 5 4 3 0 5 3 0 3 0 0 0 5 5 5 5 5 36 45 26 30 6 5 58 67 96 91 50 83 100 100 100 100
45 26 30 95 91 10 5 8 6 36 98 55 61 22 13 5 5 5 1 3 2 4 9 5 5 5 0 1 5 28 93 97 95 82 74 95 78 100 73 100 100 100 100
97 87 100 100 100 97 66 41 65 78 87 100 66 100 79 6 5 4 4 5 14 96 34 4 5 5 4 5 5 5 5 6 65 99 33 40 47 89 100 100 100 100 100

GFSGL_prec_cloud_024.txt.gz
Cloud_Cover
0 1 18 42 28 51 98 100 41 99 21 48 40 43 71 28 28 99 100 98 99 87 94 100 100 100 100 100 100 100 100 100 100 100 100 100 100 100 100 100 100 100 100
0 0 31 44 21 60 100 86 61 54 15 6 22 48 6 12 53 100 100 99 100 100 100 100 100 100 100 100 100 100 100 100 100 100 100 100 100 100 100 100 100 100 100
0 0 32 33 45 90 100 99 98 48 86 38 24 50 37 37 99 100 100 100 100 100 100 100 100 100 100 100 100 100 100 100 100 100 100 100 100 100 100 100 100 100 100
0 17 46 39 41 85 80 98 99 100 100 100 52 28 99 100 100 100 100 100 100 96 100 100 100 100 100 100 100 100 100 100 100 100 100 100 100 100 100 100 100 100 100
0 1 37 35 46 66 72 84 97 91 91 100 100 98 92 100 100 100 100 100 100 80 100 100 100 100 100 100 100 100 100 100 100 100 100 100 100 100 100 100 100 100 100
0 0 23 60 55 99 36 39 98 100 55 89 83 28 89 100 100 100 100 100 100 68 73 100 100 100 100 100 100 100 100 100 100 100 100 100 100 100 100 100 100 100 100
0 0 28 38 59 100 34 20 38 86 100 100 100 63 88 49 100 100 100 100 100 96 64 100 100 100 100 100 100 100 100 100 100 100 100 100 100 100 100 100 100 100 100
0 0 27 38 80 84 61 47 70 91 99 84 100 97 44 55 100 100 98 100 100 96 98 100 94 98 100 98 100 100 100 100 100 100 100 100 100 100 100 100 100 100 100
0 0 10 37 68 56 41 77 97 82 100 100 68 100 83 86 100 100 80 100 100 76 100 100 100 89 100 100 100 100 100 100 100 100 100 100 100 100 100 100 100 100 100
0 0 0 7 16 21 2 66 63 42 32 89 99 99 100 100 100 100 80 100 100 81 96 100 99 100 98 99 100 100 100 100 100 100 100 100 100 100 100 100 100 98 100
0 0 0 1 0 2 5 26 58 37 80 74 94 96 100 100 100 100 100 100 100 100 89 94 91 100 96 100 92 100 100 100 100 100 100 100 100 100 100 100 100 100 100
0 0 0 0 0 1 0 0 47 59 100 100 75 59 99 90 100 100 100 100 100 100 100 100 100 100 100 100 92 100 100 100 92 100 100 100 100 100 100 100 100 100 100
0 0 0 0 0 0 0 0 2 90 45 68 69 85 86 97 51 100 100 100 100 100 100 100 100 100 100 100 100 100 100 100 100 100 100 100 100 100 100 69 16 14 8
0 0 0 0 0 0 0 0 0 0 3 1 14 63 81 99 100 36 5 23 100 75 100 99 100 100 100 100 100 100 100 62 100 100 100 100 99 100 92 71 52 62 6
0 0 0 0 0 0 0 0 0 0 0 0 0 0 35 81 70 26 5 8 26 22 10 5 5 5 15 6 9 15 46 97 100 72 9 5 21 5 5 5 5 11 39
0 0 0 0 0 0 0 0 61 12 0 0 0 0 8 0 4 19 72 95 76 10 5 36 100 100 100 100 100 100 100 34 5 5 5 5 6 37 82 92 50 14 5
0 0 0 0 0 0 0 0 0 33 11 0 0 0 0 0 0 0 0 2 2 53 66 98 98 100 100 100 99 98 100 100 99 94 96 94 13 1 0 4 5 5 7
0 0 0 0 0 0 0 0 0 0 0 0 53 22 34 0 0 0 0 25 7 27 0 0 0 0 0 0 0 0 0 0 0 0 0 1 4 5 5 5 15 10 42
0 0 0 0 0 0 0 0 0 0 0 0 0 53 50 4 0 0 5 0 0 0 0 0 0 0 0 0 0 0 0 0 0 0 5 5 5 5 5 5 43 92 48
4 5 1 3 0 0 0 0 0 0 0 0 0 0 0 12 0 0 0 0 0 0 0 0 0 0 0 0 0 0 1 5 5 5 5 5 5 14 32 30 36 55 5
5 5 0 0 1 0 0 0 0 0 0 0 0 0 0 0 0 0 0 0 0 0 0 0 0 0 0 0 0 2 3 5 5 5 20 7 28 14 100 69 90 82 50
5 5 5 4 5 3 0 5 2 0 0 0 0 0 1 0 0 0 0 0 0 0 0 0 0 0 0 0 0 3 5 5 7 50 15 5 6 86 74 68 77 100 66
5 4 5 5 5 5 5 3 2 4 4 2 5 5 3 5 4 5 0 0 3 1 5 1 0 0 0 2 5 5 8 93 97 29 64 37 26 32 62 77 56 33 43
5 5 5 5 5 5 20 54 10 5 5 6 4 2 5 16 26 5 5 23 5 4 41 5 5 7 5 18 3 5 8 25 74 78 70 83 99 95 80 89 100 79 12
0 3 5 5 25 5 5 20 30 56 18 27 5 5 5 66 92 64 100 98 47 6 5 5 5 66 74 96 28 5 5 95 100 100 100 100 17 40 89 96 99 75 100
10 14 26 5 6 16 60 85 10 8 6 42 70 31 17 63 81 95 80 100 100 100 61 7 5 11 100 6 5 5 5 5 10 99 100 26 88 100 100 65 50 87 100

GFSGL_prec_cloud_027.txt.gz
Cloud_Cover
0 9 100 100 96 100 41 14 89 72 32 88 76 76 78 100 90 100 100 100 100 100 100 100 100 100 100 100 100 100 100 100 100 100 100 100 100 100 100 100 100 100 100
0 6 100 100 100 17 59 6 100 97 85 100 90 77 77 81 62 43 67 51 86 78 100 100 100 100 100 100 100 100 100 100 100 100 100 100 100 100 100 100 100 100 100
0 0 100 94 21 67 62 51 100 89 100 100 100 58 12 100 100 100 100 100 97 100 100 100 100 100 100 100 100 100 100 100 100 100 100 100 100 100 100 100 100 100 100
0 30 100 87 100 98 40 73 16 48 86 100 100 38 100 80 100 100 100 96 100 100 100 100 100 100 100 100 100 100 100 100 100 100 100 100 100 100 100 100 100 100 100
0 67 100 100 100 100 94 99 100 44 48 84 84 82 100 100 100 100 100 100 100 100 100 100 100 100 100 100 100 100 100 100 100 100 100 100 100 100 100 100 100 100 100
0 27 100 99 91 100 93 7 50 100 100 95 95 76 100 75 100 100 100 100 100 100 100 100 100 100 100 100 100 100 100 100 100 100 100 100 100 100 100 100 100 100 100
0 18 99 24 44 51 100 27 24 55 45 86 97 69 89 48 100 100 100 100 100 100 100 100 100 100 100 100 100 100 100 100 100 100 100 100 100 100 100 100 100 100 100
0 0 98 68 37 85 91 17 91 76 62 55 34 94 24 24 94 100 100 81 100 100 100 99 100 100 100 100 100 100 100 100 100 100 100 100 100 100 100 100 100 100 100
0 3 37 100 13 100 12 75 46 50 61 92 100 60 55 20 100 100 100 100 96 97 100 100 79 99 98 100 100 100 100 100 100 100 100 100 100 100 100 99 100 100 100
0 0 9 65 98 74 51 9 32 53 97 98 100 100 100 83 100 100 100 98 100 82 78 96 100 94 100 100 100 100 100 100 100 100 100 100 100 100 100 100 100 100 99
0 0 0 22 25 17 80 30 74 22 75 66 96 78 72 68 74 100 100 99 90 98 74 45 52 90 92 100 100 100 100 100 100 100 100 100 100 100 100 100 100 100 100
0 0 0 0 3 0 9 92 25 52 30 75 42 86 99 100 80 92 100 99 52 80 69 76 54 96 99 100 100 100 100 100 100 100 100 100 100 100 100 100 100 100 100
0 0 0 0 0 0 0 15 99 31 27 44 65 95 75 88 100 100 100 100 93 100 100 100 100 100 85 36 24 71 98 100 100 100 100 100 100 100 100 100 100 100 100
0 0 0 0 0 0 0 0 1 7 22 31 6 47 93 96 73 99 99 74 100 100 100 100 100 96 86 100 100 100 100 100 100 100 100 100 100 100 100 100 100 100 100
0 0 0 0 0 0 0 0 0 0 9 0 3 6 42 99 100 67 23 54 100 100 96 61 68 100 100 100 100 100 100 96 28 56 84 100 100 100 91 58 66 34 5
0 0 0 0 0 0 0 0 61 0 0 0 0 0 1 32 5 3 25 97 96 17 33 26 46 88 92 33 99 98 100 58 34 15 24 42 31 5 5 5 9 67 92
0 0 0 0 0 0 0 0 0 33 11 0 0 0 0 0 0 0 5 10 66 38 34 68 99 26 14 5 5 5 5 5 5 5 6 95 95 9 6 6 5 5 16
0 0 0 0 0 0 0 0 0 0 0 0 67 11 23 0 0 0 1 34 8 28 4 2 1 4 1 2 2 1 1 8 4 1 3 5 29 62 51 16 5 5 7
0 0 0 0 0 0 0 0 0 0 0 0 0 33 19 0 3 4 10 0 0 0 0 0 0 0 0 0 0 0 0 0 5 1 5 5 5 5 5 14 5 5 5
0 0 0 0 0 0 0 0 0 0 0 0 0 0 0 0 0 0 0 0 0 0 0 0 0 0 0 0 0 0 0 0 1 5 5 5 5 5 5 5 5 5 7
5 2 0 0 0 0 0 0 0 0 0 0 0 0 0 0 0 0 0 0 0 0 0 0 0 0 0 0 0 0 0 5 5 5 5 5 15 7 5 5 5 5 5
3 0 5 5 0 0 0 0 0 0 0 0 0 1 0 0 1 0 0 0 0 0 0 0 0 0 0 0 0 1 5 3 4 5 43 42 26 93 99 63 52 5 24
15 3 1 5 5 5 4 0 0 0 3 5 0 4 4 4 5 8 5 5 4 1 0 0 3 0 0 3 5 5 5 5 5 5 5 5 64 97 100 80 74 88 37
5 8 5 4 5 5 5 1 0 0 4 4 0 5 5 5 5 9 37 14 17 9 5 5 4 5 5 5 5 7 5 5 8 10 30 48 66 91 21 33 62 46 72
0 4 5 5 4 2 4 13 6 25 5 6 19 8 5 5 5 8 5 69 44 17 29 13 64 97 38 18 77 87 25 5 21 5 13 97 76 94 80 26 96 39 17
5 25 21 24 33 54 41 7 24 43 38 32 5 5 30 5 5 5 5 5 4 5 4 20 48 94 99 100 48 30 83 44 59 94 99 94 60 36 60 55 15 98 76

GFSGL_prec_cloud_030.txt.gz
Cloud_Cover
0 0 50 48 97 20 100 32 21 38 4 26 100 100 52 53 100 83 59 95 100 100 100 100 100 100 100 100 96 88 99 100 100 100 100 100 100 100 100 100 100 100 100
0 20 2 100 56 98 2 5 98 76 70 95 100 94 59 82 67 16 48 100 100 100 100 100 100 100 100 100 100 100 100 100 100 100 100 100 100 100 100 100 100 100 100
19 1 100 86 98 0 0 28 6 54 100 44 100 90 76 100 99 89 99 100 100 100 100 100 100 100 100 100 100 100 100 100 100 100 100 100 100 100 100 100 100 100 100
50 4 93 3 80 20 8 83 18 98 100 100 100 63 89 100 100 56 100 100 100 100 100 100 100 100 100 100 100 100 100 100 100 100 100 100 100 100 100 100 100 100 100
23 54 28 78 70 16 3 5 20 100 90 100 19 6 98 100 100 36 100 100 100 100 100 100 100 100 100 100 100 100 100 100 100 100 100 100 100 100 100 100 100 100 100
6 80 4 100 87 30 3 5 35 44 95 100 28 9 82 100 100 100 100 100 100 100 100 100 100 100 100 100 100 100 100 100 100 100 100 100 100 100 100 100 100 100 100
65 69 10 100 5 22 14 5 6 57 76 95 98 12 14 99 100 100 100 100 100 100 100 100 100 100 100 100 100 100 100 100 100 100 100 100 100 100 100 100 100 100 100
90 6 72 100 5 10 92 55 16 44 96 18 52 71 4 87 69 100 100 100 100 100 100 100 100 100 100 100 100 100 100 100 100 100 100 100 100 100 100 100 100 100 100
31 24 100 57 5 2 59 90 5 37 37 98 99 27 0 13 100 100 100 100 100 100 100 100 100 100 100 100 100 100 100 100 100 100 100 100 100 100 100 100 100 100 100
0 98 2 0 6 5 48 75 68 6 37 100 100 100 6 26 99 100 67 100 100 100 100 100 99 100 100 100 100 100 100 100 100 100 100 100 100 100 100 100 100 100 99
0 54 0 19 69 1 4 99 100 8 34 100 74 72 6 84 75 100 100 100 92 100 98 100 65 98 100 100 100 100 100 95 100 100 100 100 100 100 100 100 100 100 100
0 18 10 0 0 0 0 8 70 65 33 22 82 95 71 81 56 100 100 73 90 100 100 100 91 90 100 100 100 100 100 100 100 100 100 100 100 100 100 100 100 100 100
0 0 0 0 0 0 0 0 5 13 5 5 11 100 100 9 14 100 100 100 78 92 40 100 99 100 100 100 100 100 100 100 100 100 100 100 100 100 100 85 87 100 100
0 0 0 0 0 0 0 0 0 0 0 4 14 100 100 100 100 65 96 100 95 97 84 100 100 100 99 98 88 98 100 100 100 100 100 100 100 95 100 100 100 100 100
0 0 0 0 0 0 0 4 70 60 100 29 4 30 99 100 99 100 100 99 100 100 100 100 94 99 94 100 100 99 100 99 52 99 100 100 100 100 94 81 85 57 60
0 0 0 0 0 0 0 0 66 1 7 4 1 2 7 100 94 28 91 100 100 100 100 100 100 100 100 100 100 100 100 97 76 98 98 5 17 17 5 22 82 77 28
0 0 0 0 0 0 0 0 0 33 11 0 0 0 0 5 6 5 0 0 98 100 8 70 100 8 81 97 75 99 100 100 100 99 96 2 5 64 90 2 5 5 5
0 0 0 0 0 0 0 0 0 0 0 0 47 3 8 0 0 0 2 6 9 30 2 5 4 43 54 4 1 0 0 0 1 13 3 3 1 4 44 94 86 64 76
0 0 0 0 0 0 0 0 0 0 0 0 0 0 24 16 41 6 23 0 0 0 0 0 17 28 0 0 0 0 0 0 2 2 2 5 5 17 42 60 6 5 5
5 4 0 0 0 0 0 0 0 0 0 0 0 0 0 14 1 0 0 0 0 0 0 0 0 1 0 0 0 0 0 0 0 0 0 5 5 5 5 55 32 24 5
0 0 1 0 0 0 0 0 0 0 0 0 0 0 0 0 0 0 0 0 0 0 0 0 0 0 0 0 0 0 2 5 5 5 5 5 5 5 5 67 62 39 5
1 0 0 0 0 0 0 4 0 0 0 0 0 0 0 0 0 0 0 0 0 0 0 0 0 0 0 0 0 0 0 0 5 5 5 5 5 14 70 77 91 38 30
1 0 0 0 0 0 0 0 0 0 0 0 0 0 0 2 0 0 3 1 0 0 0 0 0 1 0 3 2 2 5 5 23 5 5 24 24 77 99 100 100 85 79
6 5 2 0 0 0 0 0 0 2 0 4 5 3 3 5 4 2 2 15 5 2 5 5 5 5 5 5 5 5 74 9 5 44 95 92 49 99 61 46 9 100 98
13 5 5 5 2 0 0 0 0 5 1 4 5 5 5 6 5 5 5 5 4 5 5 4 2 5 5 5 20 32 100 100 46 8 8 98 56 6 44 5 5 100 100
5 5 5 3 0 0 0 0 0 4 2 0 0 5 13 7 5 5 5 0 1 4 5 5 1 0 1 100 100 100 100 100 98 96 100 100 100 95 98 7 5 100 100

GFSGL_prec_cloud_033.txt.gz
Cloud_Cover
0 0 7 38 20 5 5 5 82 68 5 4 100 79 96 100 94 100 100 100 100 100 100 100 100 100 100 100 100 99 99 68 82 100 100 100 100 100 100 100 100 100 100
0 1 89 53 0 0 3 2 5 74 61 0 100 100 78 100 78 96 100 100 100 100 100 100 100 100 100 100 100 100 100 96 100 100 100 100 100 100 100 100 100 100 100
8 83 53 83 0 0 7 100 2 0 36 79 37 67 99 93 100 100 100 100 100 100 100 100 100 100 100 100 100 100 100 100 100 100 100 100 100 100 100 100 100 100 100
100 66 74 6 0 0 4 60 32 20 86 90 10 48 96 98 100 100 100 100 100 100 100 100 100 100 100 100 100 100 100 100 100 100 100 100 100 100 100 100 100 100 100
100 19 26 0 9 0 2 19 77 100 98 98 22 42 100 100 99 100 100 100 100 100 100 100 100 100 100 100 100 100 100 100 100 100 100 100 100 100 100 100 100 100 100
39 100 27 0 0 4 4 18 98 100 100 49 5 80 100 84 100 100 100 100 100 100 100 100 100 100 100 100 100 100 100 100 100 100 100 100 100 100 100 100 100 100 100
11 100 4 0 2 3 5 16 97 100 98 80 68 22 100 51 100 100 100 100 100 100 100 100 100 100 100 100 100 100 100 100 100 100 100 100 100 100 100 100 100 100 100
38 100 1 15 0 1 22 33 87 78 100 95 73 1 98 100 100 100 100 100 100 100 100 100 100 100 100 100 100 100 100 100 100 100 100 100 100 100 100 100 100 100 100
35 66 14 2 0 5 69 100 100 93 85 71 26 0 95 75 100 100 100 14 100 100 100 100 100 100 100 100 100 100 100 100 100 100 100 100 100 100 100 100 100 100 100
0 0 0 0 0 5 14 90 98 5 61 91 69 2 49 100 100 100 100 99 99 100 100 100 100 100 100 100 100 100 100 100 100 100 100 100 100 100 100 100 100 100 100
0 85 0 0 0 0 8 100 100 17 43 8 58 10 14 100 100 100 100 98 60 95 100 100 100 100 100 100 100 100 100 100 100 100 100 100 99 82 89 100 100 92 92
0 17 0 0 0 0 3 20 100 50 81 92 78 34 32 24 100 100 100 94 92 99 100 100 100 100 100 100 100 100 98 100 100 100 100 100 100 100 100 100 100 100 100
0 0 0 0 0 0 0 2 67 95 11 45 40 89 83 48 89 100 100 89 96 100 100 80 100 100 100 100 100 100 100 100 100 100 98 100 99 99 99 100 100 100 100
0 0 0 0 0 0 0 0 2 3 7 9 100 100 44 36 95 100 100 62 99 100 97 100 99 100 82 100 99 100 100 100 100 100 100 100 100 99 100 100 99 100 100
0 0 0 0 0 0 0 6 0 1 0 0 100 100 100 92 100 86 78 71 44 99 74 100 66 30 100 100 100 86 100 99 100 100 100 100 100 100 100 100 96 62 9
0 0 0 0 0 0 0 0 39 68 0 0 5 14 98 82 100 100 100 76 87 94 99 100 100 68 99 100 100 100 89 94 26 48 76 41 52 76 40 12 3 3 5
0 0 0 0 0 0 0 0 0 0 0 0 0 0 3 99 5 61 100 100 100 100 100 100 100 100 100 100 100 100 100 98 100 100 99 100 100 100 96 5 7 5 5
0 0 0 0 0 0 0 0 0 0 0 0 25 8 0 1 4 5 14 56 96 100 100 100 100 100 89 30 83 76 76 42 83 82 84 83 1 5 5 5 5 21 10
0 0 0 0 0 0 0 0 0 0 0 0 0 4 71 42 7 0 25 0 0 0 0 0 0 0 0 0 1 1 0 0 0 0 3 2 5 5 5 32 15 7 70
0 0 0 0 0 0 0 0 0 0 0 0 0 0 16 21 2 0 6 0 0 0 0 0 0 0 0 0 0 0 0 0 0 1 5 5 5 5 47 57 48 55 34
5 0 0 0 0 0 0 0 0 0 0 0 0 0 0 0 0 0 0 0 0 0 0 0 0 0 0 0 4 0 0 0 0 0 0 0 5 48 100 100 98 100 31
61 5 0 0 0 0 3 5 5 1 0 0 0 4 6 0 0 0 0 0 0 0 0 0 0 0 0 0 3 0 4 5 5 5 5 66 84 45 45 40 53 84 12
7 4 5 2 0 0 0 0 0 1 0 0 0 0 0 0 0 0 0 0 0 0 0 0 3 0 0 0 5 4 5 57 40 28 23 13 77 30 60 98 89 69 66
67 4 4 5 0 0 1 5 5 2 0 0 1 0 0 0 0 0 0 0 4 2 1 4 2 4 4 2 5 9 5 5 9 51 100 71 86 100 76 28 87 100 100
100 49 16 5 5 4 5 5 5 5 5 5 0 0 0 0 0 0 1 5 5 4 5 3 0 2 5 5 5 26 100 100 100 100 100 100 100 100 100 100 100 100 100
100 90 94 16 5 5 1 3 5 5 5 5 5 2 4 1 1 3 2 0 0 0 0 0 0 0 5 5 5 5 43 100 100 100 100 100 100 100 100 100 99 100 100

GFSGL_prec_cloud_036.txt.gz
Cloud_Cover
0 0 0 0 0 0 2 0 0 0 1 0 12 21 99 84 63 100 100 100 100 100 100 91 100 100 100 100 90 99 78 97 96 100 100 100 100 100 100 100 100 100 100
0 0 0 0 0 0 0 0 4 0 0 4 100 94 99 35 68 100 100 100 100 100 100 100 100 100 100 100 100 85 97 100 80 100 100 100 100 100 100 100 100 100 100
0 0 0 0 0 0 2 0 5 0 1 4 16 26 100 100 100 100 100 100 100 100 100 100 99 100 100 100 100 100 100 100 93 100 100 100 100 100 100 100 100 100 100
0 0 0 0 0 0 0 0 3 9 45 89 3 68 100 97 100 100 100 100 100 100 100 100 91 100 100 100 100 100 100 100 100 100 100 100 100 100 100 100 100 100 100
0 35 0 0 0 0 0 0 5 100 100 96 27 47 100 39 94 100 100 99 100 100 100 100 100 100 100 100 100 100 100 100 100 100 100 100 100 100 100 100 100 100 100
0 70 2 0 0 0 3 0 78 100 100 100 39 25 100 45 100 100 100 100 100 98 100 100 100 100 100 100 100 100 100 100 100 100 100 100 100 100 100 100 100 100 100
37 98 4 0 0 0 5 5 96 100 100 76 43 40 100 100 100 100 100 100 100 100 100 100 100 100 100 100 100 100 100 100 100 100 100 100 100 100 100 100 100 100 100
18 100 12 0 0 0 5 5 22 99 5 83 53 42 44 100 100 100 100 100 100 100 100 100 100 100 100 100 100 100 100 100 100 100 100 100 100 100 100 100 100 100 100
18 100 8 0 1 5 31 66 29 96 5 92 8 4 83 100 100 100 95 99 100 100 100 100 100 100 100 100 100 100 100 100 100 100 100 100 100 100 100 100 100 100 100
0 1 0 0 3 3 5 6 86 14 78 96 10 6 32 100 100 100 100 100 100 100 100 100 100 100 100 100 100 100 100 100 100 100 100 100 100 100 100 100 100 100 100
0 0 0 0 0 0 0 5 5 24 43 100 84 58 64 100 100 100 100 100 100 100 100 100 100 100 100 100 100 100 100 100 100 100 100 100 100 100 100 100 100 96 100
0 0 0 0 0 0 0 4 11 17 48 51 90 56 45 100 100 100 100 100 85 100 100 100 100 100 100 100 100 100 100 100 100 100 100 100 100 100 100 98 98 99 100
0 0 0 0 0 0 0 16 25 48 50 87 64 100 86 97 100 100 100 100 100 93 100 100 100 100 100 100 100 100 100 100 100 100 100 100 100 100 97 88 99 100 100
0 0 0 0 3 0 13 8 17 29 35 79 86 99 65 90 100 96 84 100 100 100 100 100 100 100 100 100 100 100 100 100 100 100 100 100 100 100 100 100 100 100 100
0 0 0 0 4 4 26 26 7 1 5 99 70 98 98 100 97 78 45 100 100 100 100 100 100 100 100 100 100 100 100 100 100 100 100 100 100 100 99 88 92 58 14
0 0 0 0 0 1 1 0 7 0 0 25 41 100 99 100 100 100 74 97 100 97 100 100 100 100 100 100 100 79 98 98 84 67 37 60 98 87 66 29 45 29 20
0 0 0 0 0 0 0 0 0 0 8 4 52 43 28 100 100 100 100 100 100 100 100 99 100 100 100 100 100 99 100 100 100 100 92 92 97 100 100 100 4 5 30
2 0 0 0 0 0 0 0 0 0 0 3 59 34 30 92 78 100 100 100 100 97 94 90 100 100 100 100 100 100 99 100 24 84 100 100 90 42 33 4 4 5 20
5 4 0 0 0 0 0 0 0 0 0 0 6 14 100 100 94 99 100 38 100 100 100 66 83 98 100 91 45 6 1 7 2 2 0 0 0 0 2 5 5 46 95
6 5 0 0 0 0 0 0 0 0 0 0 0 0 96 41 34 49 61 0 0 0 0 5 3 0 0 0 0 0 0 1 0 0 0 0 2 3 5 5 9 77 8
26 5 5 0 0 0 0 0 0 0 0 0 0 6 32 0 0 0 0 1 0 0 0 0 0 0 0 0 0 0 0 0 0 0 0 5 5 5 24 22 67 98 96
25 13 5 5 3 0 0 0 0 0 0 0 0 13 56 0 0 0 0 0 0 0 0 0 0 0 1 2 2 0 0 0 0 2 2 0 4 23 94 35 21 39 6
99 27 10 5 5 2 5 0 0 0 0 0 0 0 2 0 0 0 0 0 0 0 0 0 0 0 0 0 3 5 5 5 5 5 6 19 17 6 44 100 100 100 100
80 100 95 29 5 5 5 5 5 2 4 1 1 5 5 4 3 4 4 0 0 0 0 0 0 0 0 0 0 0 5 4 9 99 100 100 100 100 99 100 100 100 96
100 100 100 100 64 5 16 28 5 5 5 5 48 6 6 18 5 5 5 4 4 4 0 0 0 2 0 4 5 5 5 55 87 100 100 100 98 98 100 100 100 100 95
100 100 100 100 100 100 48 26 16 9 6 5 13 90 93 24 3 5 5 3 4 4 5 2 5 5 5 5 5 4 5 5 5 6 18 18 35 75 86 74 91 100 100

GFSGL_prec_cloud_042.txt.gz
Cloud_Cover
1 1 2 0 0 0 0 0 0 0 0 4 0 0 27 38 5 5 87 62 93 100 100 100 100 100 100 100 97 95 100 100 100 100 100 100 100 100 100 100 100 100 100
0 1 0 0 0 0 0 0 0 0 0 0 0 4 1 5 80 99 68 22 100 100 100 100 100 100 100 100 100 100 76 100 86 100 100 100 100 100 100 100 100 100 100
0 1 5 0 0 0 0 0 0 0 0 0 5 2 4 100 92 7 57 94 100 100 100 100 100 100 100 100 100 100 93 43 37 100 100 100 100 100 100 100 100 100 100
1 5 1 0 0 0 0 0 0 1 0 3 2 0 6 84 59 51 75 86 100 100 100 100 100 100 100 100 100 94 60 54 100 100 100 100 100 100 100 100 100 100 100
5 0 0 0 0 0 0 0 0 2 2 4 5 68 12 100 10 53 80 100 100 100 100 100 100 100 100 100 98 100 82 90 100 100 100 100 100 100 100 100 100 100 100
0 0 0 0 0 0 0 3 1 5 5 5 5 8 45 100 100 100 95 99 100 100 100 100 100 100 100 99 100 99 100 100 100 100 100 100 100 100 100 100 100 100 100
0 0 0 0 0 0 0 1 1 5 40 9 5 3 68 47 100 100 100 100 99 100 100 100 100 100 100 100 100 100 94 99 99 91 100 100 100 100 100 100 100 100 100
0 0 0 0 0 0 0 5 16 63 60 10 5 5 25 100 100 100 100 96 100 100 100 100 100 100 100 100 100 100 100 100 100 100 69 93 100 80 100 100 100 100 100
0 0 0 0 0 2 5 5 14 10 6 5 5 9 14 100 100 100 100 100 100 100 100 100 100 100 100 100 100 100 100 100 100 91 70 100 97 100 100 100 100 100 100
0 0 0 0 0 0 0 5 5 5 12 62 14 78 87 100 100 100 100 100 100 100 100 100 100 100 100 99 100 100 100 100 100 100 100 100 100 100 100 100 100 100 100
0 0 0 0 0 0 0 0 14 27 77 90 13 100 84 100 100 100 100 100 100 100 100 100 100 100 100 100 100 100 100 100 100 100 100 100 100 100 100 100 100 100 100
0 0 0 0 0 0 0 8 28 36 35 56 69 100 100 100 100 100 100 100 100 100 100 100 100 100 100 100 100 100 100 100 100 100 100 100 100 100 100 100 100 100 100
0 0 0 0 0 0 0 28 94 44 36 51 80 100 100 100 100 100 100 100 100 100 100 100 100 100 100 100 100 100 98 100 100 100 100 100 100 100 100 100 100 100 100
0 0 0 0 9 1 1 16 99 100 99 100 100 100 100 100 100 100 100 100 100 100 100 100 100 100 100 100 100 100 100 100 100 100 100 100 100 100 100 100 100 100 100
0 0 3 27 15 31 42 33 14 20 59 93 100 100 96 100 100 100 100 100 100 100 100 100 100 100 100 100 100 100 100 100 100 99 99 100 100 100 100 100 100 100 100
0 0 2 3 21 72 100 100 89 90 100 95 89 64 45 82 100 100 100 100 100 100 100 100 100 100 100 100 100 100 84 83 96 100 100 100 100 100 100 100 100 93 24
0 0 5 7 18 36 40 25 23 29 89 100 100 100 93 100 100 100 100 100 100 100 100 100 100 100 100 100 100 93 100 100 100 100 100 100 100 100 100 100 57 100 70
0 39 0 0 0 8 2 1 0 0 78 80 100 100 100 100 100 100 100 100 100 100 100 100 100 100 100 100 68 92 100 67 55 33 37 59 40 19 98 60 23 6 5
0 0 0 0 0 11 0 0 0 0 0 35 100 100 100 100 100 100 100 64 100 52 56 87 100 100 100 100 100 74 63 100 80 27 36 55 12 6 5 4 2 86 64
2 4 5 0 1 0 0 0 0 0 0 4 59 99 100 100 100 100 100 67 28 75 38 25 55 88 100 100 100 100 100 100 92 58 18 2 0 0 0 0 0 5 40
97 4 47 1 0 0 0 0 0 0 0 0 0 57 100 40 98 100 100 98 18 89 100 100 100 100 99 100 100 100 100 100 100 85 54 33 29 21 7 4 0 3 5
100 97 7 0 0 0 0 0 0 0 0 0 0 28 100 64 0 48 100 100 49 1 0 0 0 0 1 24 64 89 91 83 63 23 14 2 4 2 3 1 3 6 20
100 100 100 77 8 42 4 0 0 0 0 2 0 2 100 73 0 0 0 9 31 10 0 0 0 0 0 0 0 0 1 1 0 0 0 0 1 2 4 4 5 14 9
100 100 100 100 100 58 5 0 0 18 1 5 5 5 4 0 0 0 0 0 0 0 0 0 0 0 0 0 0 0 0 0 0 0 0 0 3 14 85 76 98 91 97
100 100 100 100 100 100 96 10 6 11 5 5 5 0 0 0 0 0 0 0 2 5 5 5 3 0 0 0 1 4 5 4 4 11 5 10 38 88 100 99 100 100 100
100 100 100 100 100 100 100 100 89 21 5 5 5 4 0 5 5 5 5 5 5 4 0 1 0 0 4 5 5 5 7 49 54 85 100 92 27 18 27 48 91 86 86

GFSGL_prec_cloud_045.txt.gz
Cloud_Cover
0 0 0 0 0 0 0 0 0 0 0 0 3 1 1 6 35 78 92 100 66 90 100 100 100 100 98 100 95 100 100 63 100 100 100 100 100 100 100 100 100 100 100
0 5 0 0 0 0 0 0 0 0 0 0 0 0 3 12 99 100 100 87 81 100 100 100 100 100 100 100 100 100 100 95 95 100 100 100 100 100 100 100 100 100 100
5 5 0 0 0 0 0 0 0 0 0 0 4 0 0 23 96 23 83 100 100 100 100 100 100 100 100 100 98 100 99 98 99 100 100 100 100 100 100 100 100 100 100
5 0 4 0 0 0 0 0 0 0 3 2 5 1 0 13 5 40 100 100 100 100 100 100 100 100 100 100 96 100 93 100 99 100 100 100 100 100 100 100 100 100 100
0 66 0 0 0 0 0 0 0 0 5 5 4 5 2 6 26 88 100 100 100 100 100 100 100 100 100 92 58 97 92 99 100 100 100 100 100 100 100 100 100 100 100
5 1 0 0 0 0 0 0 0 0 1 5 5 5 4 71 100 100 100 100 100 100 100 100 100 100 100 78 100 80 52 61 100 100 100 100 100 100 100 100 100 100 100
0 0 0 0 0 0 0 3 0 0 1 6 5 5 73 6 100 100 100 100 100 100 100 100 100 100 100 98 83 31 97 100 62 97 100 100 100 100 100 100 100 100 100
0 2 1 0 0 0 0 2 1 2 0 16 14 5 30 34 100 100 100 100 100 100 100 100 100 100 100 100 100 94 92 99 99 78 98 98 71 99 97 100 98 100 100
98 18 0 0 0 5 5 5 5 44 20 26 7 7 71 100 100 100 88 100 100 100 100 100 100 100 100 100 100 100 100 100 100 100 100 92 100 93 71 83 100 95 100
75 3 0 0 0 0 0 21 10 75 5 5 15 43 100 100 100 100 100 100 100 100 100 100 100 100 100 100 100 100 100 100 100 100 100 100 96 100 100 100 100 100 99
6 0 0 0 0 0 2 4 5 26 74 28 12 82 100 100 100 100 100 75 92 100 100 100 100 100 100 100 100 80 100 100 100 100 100 100 100 100 100 100 100 100 98
5 0 0 0 0 0 0 13 25 46 93 59 33 100 100 100 100 100 100 97 100 100 100 100 100 100 100 100 100 100 100 100 100 100 100 100 100 100 100 100 100 100 93
3 0 0 0 0 0 4 13 44 85 56 81 28 37 100 100 100 100 100 100 100 100 100 100 100 100 100 100 100 100 100 100 100 100 100 100 84 100 100 99 100 100 90
5 0 0 0 0 0 19 15 28 63 69 85 45 100 99 100 99 96 100 100 100 100 100 100 100 100 100 100 100 100 100 100 100 100 100 100 100 99 100 79 98 100 100
5 0 0 0 0 18 36 32 44 43 69 100 56 91 79 100 99 58 100 100 100 100 100 100 100 100 100 100 100 100 100 100 100 100 96 98 97 100 100 100 100 100 100
5 0 0 0 0 14 2 40 93 90 100 85 64 100 100 79 100 100 100 100 100 100 100 100 100 100 100 100 100 100 100 100 100 90 88 98 86 100 100 100 100 100 100
4 0 0 0 0 1 4 0 2 72 100 100 100 100 78 97 100 100 100 100 100 100 100 100 100 100 100 100 100 89 89 100 100 57 92 90 83 73 41 55 86 100 100
0 20 0 0 0 0 0 0 0 5 18 66 100 77 98 100 100 100 100 100 100 100 100 100 100 99 100 100 100 100 87 72 100 100 99 100 63 100 100 99 100 96 83
0 0 0 0 0 4 0 0 0 5 100 28 100 100 100 100 100 100 100 85 100 100 100 100 100 93 85 100 100 86 64 59 62 59 90 88 84 96 51 90 83 42 42
87 0 0 0 1 0 0 0 0 0 4 93 96 100 100 100 100 100 61 100 84 98 100 100 100 100 100 77 99 100 100 91 81 84 85 26 5 3 5 4 2 0 0
100 19 3 0 0 0 0 0 0 0 0 0 3 64 82 4 55 100 100 60 39 54 48 55 46 64 71 94 100 100 87 95 96 24 12 0 0 0 0 0 2 0 0
100 100 58 3 0 0 0 0 0 0 0 0 0 14 100 2 0 15 29 30 15 20 17 70 98 87 100 100 63 39 41 53 80 77 8 0 0 0 0 0 0 0 0
100 100 100 100 13 40 3 0 0 0 0 0 0 0 89 0 0 0 0 0 0 0 0 0 1 7 28 4 2 1 1 0 0 0 0 0 0 0 0 0 0 0 4
100 100 100 100 100 85 7 0 0 29 5 0 0 0 0 0 0 0 0 0 0 0 0 0 0 0 0 0 0 0 0 0 0 0 0 0 0 5 0 0 4 5 5
100 100 100 100 100 100 100 95 37 2 0 0 0 0 0 0 0 0 0 2 13 3 6 0 0 0 0 0 0 0 0 0 15 8 3 3 2 3 5 6 60 68 95
100 100 100 100 100 100 100 100 100 100 98 90 42 5 5 5 5 3 0 0 0 0 4 6 14 9 12 5 3 0 1 21 32 46 8 1 5 5 5 5 5 14 17

GFSGL_prec_cloud_048.txt.gz
Cloud_Cover
15 21 12 1 0 1 0 0 0 0 2 12 45 38 8 17 4 46 100 99 92 100 100 100 97 100 89 85 100 95 63 48 42 99 98 78 100 99 99 94 100 100 100
12 6 0 0 3 0 0 0 0 0 1 19 3 0 4 0 40 68 54 43 100 61 39 100 100 100 100 100 21 96 98 72 20 37 100 100 100 100 100 100 100 100 100
0 0 4 1 0 0 0 0 0 0 0 0 0 2 12 36 55 46 100 100 100 71 100 100 100 100 100 55 67 100 100 100 86 99 100 100 100 100 100 100 100 100 100
0 0 0 0 0 0 0 0 7 24 0 4 24 53 70 53 37 46 97 100 74 96 100 100 100 100 100 83 97 100 97 100 95 99 100 100 100 100 100 100 100 100 100
0 0 0 5 0 7 31 50 70 16 10 49 76 76 44 19 47 80 100 99 82 100 100 100 100 100 100 100 92 98 96 100 90 100 100 100 100 100 100 100 100 100 100
0 0 2 0 59 43 72 71 42 29 71 53 50 40 31 5 100 100 100 100 100 100 100 100 100 100 100 72 89 82 23 62 68 100 100 100 100 100 100 100 100 100 100
5 17 6 45 72 63 85 66 50 0 15 23 7 40 31 50 100 100 100 100 100 100 100 100 100 100 100 65 70 53 48 5 66 41 100 100 100 100 100 100 100 100 100
76 26 28 51 49 63 93 54 18 6 7 8 23 33 72 34 100 100 100 100 100 100 100 100 100 100 96 98 77 88 60 59 60 92 100 100 94 100 94 95 96 100 100
67 16 26 41 80 80 69 42 19 4 8 14 29 72 91 80 100 100 100 100 100 100 100 100 100 100 100 97 100 67 85 99 100 100 97 100 99 100 100 96 100 100 100
5 73 52 92 98 100 64 27 5 6 5 19 74 52 99 94 99 100 94 99 100 100 100 100 100 100 100 99 100 98 100 87 100 100 100 100 100 100 100 100 100 97 100
55 93 46 100 100 85 46 8 2 6 26 44 97 60 87 97 80 100 100 99 100 100 100 100 100 100 100 100 100 100 99 100 99 100 100 100 100 100 100 100 100 100 100
82 64 68 82 90 18 33 7 15 20 42 78 60 98 100 100 96 94 100 88 100 99 82 100 100 100 100 100 100 100 58 95 100 100 100 100 100 100 100 100 100 100 100
100 100 54 67 44 8 14 31 50 82 40 56 38 38 100 100 100 100 100 100 92 100 100 100 100 100 100 100 100 100 99 98 100 100 100 95 100 100 100 100 100 100 67
100 37 36 46 26 20 16 39 74 95 100 73 95 98 68 98 87 94 100 100 100 96 99 100 100 100 100 100 100 79 100 99 100 100 100 100 100 100 100 100 100 90 93
96 44 13 38 24 23 31 85 85 75 42 81 100 85 34 55 100 81 97 100 100 100 100 100 100 100 100 100 100 100 100 100 100 100 100 100 100 100 88 83 94 58 83
100 42 82 70 31 39 6 5 94 90 100 100 100 98 46 78 100 100 100 100 100 100 100 100 100 100 100 100 100 100 100 100 100 100 100 100 99 74 90 95 100 100 100
6 21 3 0 0 0 17 35 18 44 100 100 100 100 100 96 100 100 100 100 100 100 100 100 100 100 100 100 100 100 100 100 100 96 90 96 100 98 100 100 100 100 100
2 4 0 0 0 0 6 18 50 84 63 26 82 66 100 100 100 100 100 100 100 100 92 95 99 100 100 100 100 100 100 100 100 100 100 98 98 99 97 93 100 100 100
0 0 3 3 1 0 6 80 100 80 88 72 68 100 100 100 100 100 100 100 100 100 100 88 96 96 82 100 100 99 100 98 100 100 100 99 100 99 100 100 100 94 100
80 0 2 0 1 0 0 18 86 99 100 10 81 68 88 100 100 98 100 100 99 100 100 100 73 95 95 90 100 100 100 100 100 90 80 42 70 51 20 9 5 5 5
100 5 5 1 0 0 0 0 1 46 91 69 48 35 97 22 72 40 71 98 100 100 8 74 81 63 87 100 98 65 100 98 96 100 98 100 94 92 20 5 0 0 4
95 83 16 5 2 0 0 0 0 0 10 20 49 98 100 100 57 69 45 43 87 92 69 90 100 100 96 47 41 65 68 95 72 10 18 10 0 0 0 0 0 0 0
100 100 100 79 5 10 1 0 0 0 0 0 0 1 2 7 27 18 15 15 43 66 58 48 33 46 60 49 70 98 60 6 2 1 0 0 9 9 1 2 6 13 17
100 100 99 100 100 34 5 4 15 4 0 0 0 0 0 0 3 4 2 2 0 2 7 9 23 40 25 15 15 18 5 2 4 5 9 1 0 16 4 5 6 3 8
82 100 98 87 100 100 100 50 74 29 22 37 14 32 9 45 99 100 100 100 100 98 77 73 64 32 4 4 24 30 34 2 24 44 24 23 7 6 1 0 0 0 0
100 100 100 86 98 100 100 100 100 100 100 100 96 100 100 98 80 88 78 62 71 83 87 88 94 96 100 99 97 96 99 48 43 47 9 0 4 0 0 0 4 5 4